Time,TemperatureF,DewpointF,PressureIn,WindDirection,WindDirectionDegrees,WindSpeedMPH,WindSpeedGustMPH,Humidity,HourlyPrecipIn,Conditions,Clouds,dailyrainin,SoftwareType,DateUTC
2013-01-24 00:00:00,26.7,14.3,30.20,WNW,283,1.0,0.0,59,0.00,,,0.00,VWS V14.01,2013-01-24 05:00:00,
2013-01-24 00:04:00,26.7,14.3,30.20,WNW,289,2.0,0.0,59,0.00,,,0.00,VWS V14.01,2013-01-24 05:04:00,
2013-01-24 00:09:00,26.7,14.3,30.20,West,277,2.0,0.0,59,0.00,,,0.00,VWS V14.01,2013-01-24 05:09:00,
2013-01-24 00:10:00,26.7,14.3,30.20,West,268,2.0,0.0,59,0.00,,,0.00,VWS V14.01,2013-01-24 05:10:00,
2013-01-24 00:14:00,26.7,14.7,30.20,West,274,0.0,0.0,60,0.00,,,0.00,VWS V14.01,2013-01-24 05:14:00,
2013-01-24 00:19:00,26.9,14.9,30.20,West,263,2.0,0.0,60,0.00,,,0.00,VWS V14.01,2013-01-24 05:19:00,
2013-01-24 00:20:00,26.9,14.9,30.20,West,263,5.0,0.0,60,0.00,,,0.00,VWS V14.01,2013-01-24 05:20:00,
2013-01-24 00:24:00,26.9,14.9,30.20,West,273,2.0,0.0,60,0.00,,,0.00,VWS V14.01,2013-01-24 05:24:00,
2013-01-24 00:29:00,26.9,15.3,30.21,West,271,4.0,0.0,61,0.00,,,0.00,VWS V14.01,2013-01-24 05:29:00,
2013-01-24 00:30:00,26.9,15.3,30.21,West,270,1.0,0.0,61,0.00,,,0.00,VWS V14.01,2013-01-24 05:30:00,
2013-01-24 00:34:00,26.7,15.1,30.21,West,262,1.0,0.0,61,0.00,,,0.00,VWS V14.01,2013-01-24 05:34:00,
2013-01-24 00:39:00,26.7,15.4,30.21,West,271,3.0,0.0,62,0.00,,,0.00,VWS V14.01,2013-01-24 05:39:00,
2013-01-24 00:40:00,26.7,15.4,30.21,WSW,253,2.0,0.0,62,0.00,,,0.00,VWS V14.01,2013-01-24 05:40:00,
2013-01-24 00:44:00,26.9,15.6,30.21,West,269,4.0,0.0,62,0.00,,,0.00,VWS V14.01,2013-01-24 05:44:00,
2013-01-24 00:49:00,27.0,15.7,30.21,WNW,288,7.0,0.0,62,0.00,,,0.00,VWS V14.01,2013-01-24 05:49:00,
2013-01-24 00:50:00,27.2,15.9,30.21,West,274,5.0,0.0,62,0.00,,,0.00,VWS V14.01,2013-01-24 05:50:00,
2013-01-24 00:54:00,27.3,16.0,30.21,WNW,291,11.0,0.0,62,0.00,,,0.00,VWS V14.01,2013-01-24 05:54:00,
2013-01-24 00:59:00,27.8,16.1,30.22,West,278,5.0,0.0,61,0.00,,,0.00,VWS V14.01,2013-01-24 05:59:00,
2013-01-24 01:00:00,27.8,16.1,30.22,WNW,289,6.0,0.0,61,0.00,,,0.00,VWS V14.01,2013-01-24 06:00:00,
2013-01-24 01:04:00,27.8,16.1,30.22,WNW,303,7.0,0.0,61,0.00,,,0.00,VWS V14.01,2013-01-24 06:04:00,
2013-01-24 01:09:00,27.9,16.2,30.22,West,267,8.0,0.0,61,0.00,,,0.00,VWS V14.01,2013-01-24 06:09:00,
2013-01-24 01:10:00,27.9,16.2,30.22,West,280,12.0,0.0,61,0.00,,,0.00,VWS V14.01,2013-01-24 06:10:00,
2013-01-24 01:14:00,27.9,16.2,30.23,WNW,290,3.0,0.0,61,0.00,,,0.00,VWS V14.01,2013-01-24 06:14:00,
2013-01-24 01:19:00,28.1,16.4,30.23,WSW,256,5.0,0.0,61,0.00,,,0.00,VWS V14.01,2013-01-24 06:19:00,
2013-01-24 01:20:00,28.1,16.4,30.23,West,275,12.0,0.0,61,0.00,,,0.00,VWS V14.01,2013-01-24 06:20:00,
2013-01-24 01:24:00,27.9,16.2,30.23,West,277,11.0,0.0,61,0.00,,,0.00,VWS V14.01,2013-01-24 06:24:00,
2013-01-24 01:29:00,27.9,16.2,30.24,WNW,301,4.0,0.0,61,0.00,,,0.00,VWS V14.01,2013-01-24 06:29:00,
2013-01-24 01:30:00,27.9,16.2,30.24,West,276,5.0,0.0,61,0.00,,,0.00,VWS V14.01,2013-01-24 06:30:00,
2013-01-24 01:34:00,27.6,15.9,30.24,WSW,252,8.0,0.0,61,0.00,,,0.00,VWS V14.01,2013-01-24 06:34:00,
2013-01-24 01:39:00,27.5,15.4,30.24,NW,306,12.0,0.0,60,0.00,,,0.00,VWS V14.01,2013-01-24 06:39:00,
2013-01-24 01:40:00,27.5,15.4,30.24,WNW,289,10.0,0.0,60,0.00,,,0.00,VWS V14.01,2013-01-24 06:40:00,
2013-01-24 01:44:00,27.3,15.3,30.25,WNW,286,9.0,0.0,60,0.00,,,0.00,VWS V14.01,2013-01-24 06:44:00,
2013-01-24 01:49:00,27.0,14.6,30.25,West,270,15.0,0.0,59,0.00,,,0.00,VWS V14.01,2013-01-24 06:49:00,
2013-01-24 01:50:00,27.0,14.6,30.25,West,281,16.0,0.0,59,0.00,,,0.00,VWS V14.01,2013-01-24 06:50:00,
2013-01-24 01:54:00,26.9,14.5,30.25,NNW,336,21.0,0.0,59,0.00,,,0.00,VWS V14.01,2013-01-24 06:54:00,
2013-01-24 01:59:00,26.6,15.0,30.27,NW,313,8.0,0.0,61,0.00,,,0.00,VWS V14.01,2013-01-24 06:59:00,
2013-01-24 02:00:00,26.6,14.2,30.27,NW,309,5.0,0.0,59,0.00,,,0.00,VWS V14.01,2013-01-24 07:00:00,
2013-01-24 02:04:00,26.4,14.0,30.27,WNW,296,10.0,0.0,59,0.00,,,0.00,VWS V14.01,2013-01-24 07:04:00,
2013-01-24 02:09:00,26.0,13.6,30.27,West,273,18.0,0.0,59,0.00,,,0.00,VWS V14.01,2013-01-24 07:09:00,
2013-01-24 02:10:00,26.0,13.6,30.27,WNW,286,11.0,0.0,59,0.00,,,0.00,VWS V14.01,2013-01-24 07:10:00,
2013-01-24 02:14:00,25.8,13.1,30.30,WNW,284,12.0,0.0,58,0.00,,,0.00,VWS V14.01,2013-01-24 07:14:00,
2013-01-24 02:19:00,25.7,13.4,30.30,WNW,288,8.0,0.0,59,0.00,,,0.00,VWS V14.01,2013-01-24 07:19:00,
2013-01-24 02:20:00,25.7,13.4,30.30,WNW,298,12.0,0.0,59,0.00,,,0.00,VWS V14.01,2013-01-24 07:20:00,
2013-01-24 02:24:00,25.4,12.3,30.30,West,263,13.0,0.0,57,0.00,,,0.00,VWS V14.01,2013-01-24 07:24:00,
2013-01-24 02:29:00,25.1,11.6,30.31,WNW,299,8.0,0.0,56,0.00,,,0.00,VWS V14.01,2013-01-24 07:29:00,
2013-01-24 02:30:00,25.1,11.6,30.31,WNW,302,13.0,0.0,56,0.00,,,0.00,VWS V14.01,2013-01-24 07:30:00,
2013-01-24 02:34:00,24.8,11.3,30.31,WNW,300,4.0,0.0,56,0.00,,,0.00,VWS V14.01,2013-01-24 07:34:00,
2013-01-24 02:39:00,24.7,11.2,30.31,NNW,330,9.0,0.0,56,0.00,,,0.00,VWS V14.01,2013-01-24 07:39:00,
2013-01-24 02:40:00,24.7,11.2,30.31,NW,326,9.0,0.0,56,0.00,,,0.00,VWS V14.01,2013-01-24 07:40:00,
2013-01-24 02:45:00,24.4,11.0,30.32,NW,323,7.0,0.0,56,0.00,,,0.00,VWS V14.01,2013-01-24 07:45:00,
2013-01-24 02:50:00,24.1,10.3,30.32,WNW,292,4.0,0.0,55,0.00,,,0.00,VWS V14.01,2013-01-24 07:50:00,
2013-01-24 02:55:00,23.8,9.6,30.32,West,277,14.0,0.0,54,0.00,,,0.00,VWS V14.01,2013-01-24 07:55:00,
2013-01-24 03:00:00,23.3,8.7,30.34,WNW,290,5.0,0.0,53,0.00,,,0.00,VWS V14.01,2013-01-24 08:00:00,
2013-01-24 03:20:00,21.9,5.7,30.34,NNW,327,9.0,0.0,49,0.00,,,0.00,VWS V14.01,2013-01-24 08:20:00,
2013-01-24 03:50:00,21.0,5.3,30.37,West,280,3.0,0.0,50,0.00,,,0.00,VWS V14.01,2013-01-24 08:50:00,
2013-01-24 04:04:00,23.3,8.7,30.34,WNW,294,7.0,0.0,53,0.00,,,0.00,VWS V14.01,2013-01-24 09:04:00,
2013-01-24 04:10:00,23.0,8.9,30.34,WNW,303,6.0,0.0,54,0.00,,,0.00,VWS V14.01,2013-01-24 09:10:00,
2013-01-24 04:15:00,22.5,7.5,30.34,North,9,13.0,0.0,52,0.00,,,0.00,VWS V14.01,2013-01-24 09:15:00,
2013-01-24 04:20:00,22.2,6.8,30.34,NW,319,10.0,0.0,51,0.00,,,0.00,VWS V14.01,2013-01-24 09:20:00,
2013-01-24 04:30:00,21.8,5.6,30.34,WNW,294,4.0,0.0,49,0.00,,,0.00,VWS V14.01,2013-01-24 09:30:00,
2013-01-24 04:35:00,21.4,5.7,30.35,NW,305,4.0,0.0,50,0.00,,,0.00,VWS V14.01,2013-01-24 09:35:00,
2013-01-24 04:40:00,21.3,5.6,30.35,NW,310,9.0,0.0,50,0.00,,,0.00,VWS V14.01,2013-01-24 09:40:00,
2013-01-24 04:45:00,21.3,5.6,30.35,NNW,329,9.0,0.0,50,0.00,,,0.00,VWS V14.01,2013-01-24 09:45:00,
2013-01-24 04:50:00,21.1,5.4,30.37,NW,304,5.0,0.0,50,0.00,,,0.00,VWS V14.01,2013-01-24 09:50:00,
2013-01-24 05:00:00,20.8,5.1,30.37,WNW,288,3.0,0.0,50,0.00,,,0.00,VWS V14.01,2013-01-24 10:00:00,
2013-01-24 05:05:00,20.8,4.7,30.38,WNW,300,3.0,0.0,49,0.00,,,0.00,VWS V14.01,2013-01-24 10:05:00,
2013-01-24 05:06:00,19.1,3.1,30.42,West,273,3.0,0.0,49,0.00,,,0.00,VWS V14.01,2013-01-24 10:06:00,
2013-01-24 05:10:00,20.6,4.5,30.38,NW,325,7.0,0.0,49,0.00,,,0.00,VWS V14.01,2013-01-24 10:10:00,
2013-01-24 05:15:00,20.5,3.9,30.38,WNW,294,9.0,0.0,48,0.00,,,0.00,VWS V14.01,2013-01-24 10:15:00,
2013-01-24 05:20:00,20.5,3.5,30.39,NW,321,3.0,0.0,47,0.00,,,0.00,VWS V14.01,2013-01-24 10:20:00,
2013-01-24 05:25:00,20.3,3.3,30.39,NW,318,6.0,0.0,47,0.00,,,0.00,VWS V14.01,2013-01-24 10:25:00,
2013-01-24 05:26:00,18.4,4.1,30.43,NW,309,4.0,0.0,53,0.00,,,0.00,VWS V14.01,2013-01-24 10:26:00,
2013-01-24 05:30:00,20.2,3.2,30.39,WNW,297,4.0,0.0,47,0.00,,,0.00,VWS V14.01,2013-01-24 10:30:00,
2013-01-24 05:31:00,18.4,4.1,30.44,WNW,292,2.0,0.0,53,0.00,,,0.00,VWS V14.01,2013-01-24 10:31:00,
2013-01-24 05:35:00,20.0,3.0,30.40,WNW,292,4.0,0.0,47,0.00,,,0.00,VWS V14.01,2013-01-24 10:35:00,
2013-01-24 05:40:00,19.9,2.9,30.40,NW,317,7.0,0.0,47,0.00,,,0.00,VWS V14.01,2013-01-24 10:40:00,
2013-01-24 05:45:00,19.9,2.9,30.40,NNW,340,3.0,0.0,47,0.00,,,0.00,VWS V14.01,2013-01-24 10:45:00,
2013-01-24 05:50:00,19.5,2.6,30.41,WNW,297,2.0,0.0,47,0.00,,,0.00,VWS V14.01,2013-01-24 10:50:00,
2013-01-24 05:51:00,18.1,4.3,30.46,NW,319,8.0,0.0,54,0.00,,,0.00,VWS V14.01,2013-01-24 10:51:00,
2013-01-24 05:55:00,19.5,2.6,30.41,NW,313,6.0,0.0,47,0.00,,,0.00,VWS V14.01,2013-01-24 10:55:00,
2013-01-24 06:00:00,19.4,2.9,30.41,WNW,299,4.0,0.0,48,0.00,,,0.00,VWS V14.01,2013-01-24 11:00:00,
2013-01-24 06:01:00,18.1,4.3,30.47,North,355,0.0,0.0,54,0.00,,,0.00,VWS V14.01,2013-01-24 11:01:00,
2013-01-24 06:05:00,19.2,3.2,30.42,WNW,286,2.0,0.0,49,0.00,,,0.00,VWS V14.01,2013-01-24 11:05:00,
2013-01-24 06:15:00,18.9,3.3,30.42,NW,316,3.0,0.0,50,0.00,,,0.00,VWS V14.01,2013-01-24 11:15:00,
2013-01-24 06:21:00,18.8,3.7,30.43,NNW,329,6.0,0.0,51,0.00,,,0.00,VWS V14.01,2013-01-24 11:21:00,
2013-01-24 06:26:00,18.6,3.9,30.43,WNW,289,6.0,0.0,52,0.00,,,0.00,VWS V14.01,2013-01-24 11:26:00,
2013-01-24 06:34:00,18.4,4.1,30.44,NW,315,6.0,0.0,53,0.00,,,0.00,VWS V14.01,2013-01-24 11:34:00,
2013-01-24 06:41:00,18.3,4.4,30.44,NW,314,3.0,0.0,54,0.00,,,0.00,VWS V14.01,2013-01-24 11:41:00,
2013-01-24 06:46:00,18.1,4.3,30.44,NW,311,3.0,0.0,54,0.00,,,0.00,VWS V14.01,2013-01-24 11:46:00,
2013-01-24 06:51:00,18.1,4.3,30.46,NNE,15,4.0,0.0,54,0.00,,,0.00,VWS V14.01,2013-01-24 11:51:00,
2013-01-24 07:01:00,18.1,4.3,30.46,NNW,341,4.0,0.0,54,0.00,,,0.00,VWS V14.01,2013-01-24 12:01:00,
2013-01-24 07:11:00,18.1,4.7,30.47,NNW,335,4.0,0.0,55,0.00,,,0.00,VWS V14.01,2013-01-24 12:11:00,
2013-01-24 07:16:00,18.0,4.6,30.47,North,355,2.0,0.0,55,0.00,,,0.00,VWS V14.01,2013-01-24 12:16:00,
2013-01-24 07:21:00,18.0,4.6,30.48,NNW,340,1.0,0.0,55,0.00,,,0.00,VWS V14.01,2013-01-24 12:21:00,
2013-01-24 07:26:00,17.8,4.8,30.48,NNW,342,1.0,0.0,56,0.00,,,0.00,VWS V14.01,2013-01-24 12:26:00,
2013-01-24 07:31:00,17.8,4.8,30.48,NW,317,5.0,0.0,56,0.00,,,0.00,VWS V14.01,2013-01-24 12:31:00,
2013-01-24 07:36:00,17.8,4.4,30.49,NNW,346,0.0,0.0,55,0.00,,,0.00,VWS V14.01,2013-01-24 12:36:00,
2013-01-24 07:41:00,17.7,4.7,30.49,NNW,348,0.0,0.0,56,0.00,,,0.00,VWS V14.01,2013-01-24 12:41:00,
2013-01-24 07:46:00,17.7,4.3,30.49,North,355,5.0,0.0,55,0.00,,,0.00,VWS V14.01,2013-01-24 12:46:00,
2013-01-24 07:51:00,17.7,4.7,30.50,NNW,331,3.0,0.0,56,0.00,,,0.00,VWS V14.01,2013-01-24 12:51:00,
2013-01-24 07:56:00,17.7,5.1,30.50,NW,320,0.0,0.0,57,0.00,,,0.00,VWS V14.01,2013-01-24 12:56:00,
2013-01-24 08:01:00,17.7,5.1,30.50,NW,306,2.0,0.0,57,0.00,,,0.00,VWS V14.01,2013-01-24 13:01:00,
2013-01-24 08:06:00,17.5,4.9,30.51,NNW,329,2.0,0.0,57,0.00,,,0.00,VWS V14.01,2013-01-24 13:06:00,
2013-01-24 08:11:00,17.5,4.5,30.51,WNW,285,4.0,0.0,56,0.00,,,0.00,VWS V14.01,2013-01-24 13:11:00,
2013-01-24 08:16:00,17.7,4.7,30.51,WNW,300,3.0,0.0,56,0.00,,,0.00,VWS V14.01,2013-01-24 13:16:00,
2013-01-24 08:21:00,17.7,3.9,30.52,WNW,301,4.0,0.0,54,0.00,,,0.00,VWS V14.01,2013-01-24 13:21:00,
2013-01-24 08:26:00,17.8,4.0,30.52,NNW,331,1.0,0.0,54,0.00,,,0.00,VWS V14.01,2013-01-24 13:26:00,
2013-01-24 08:31:00,17.8,3.6,30.52,NW,317,2.0,0.0,53,0.00,,,0.00,VWS V14.01,2013-01-24 13:31:00,
2013-01-24 08:36:00,18.0,3.8,30.52,WNW,292,2.0,0.0,53,0.00,,,0.00,VWS V14.01,2013-01-24 13:36:00,
2013-01-24 08:41:00,18.0,2.9,30.52,NW,325,0.0,0.0,51,0.00,,,0.00,VWS V14.01,2013-01-24 13:41:00,
2013-01-24 08:46:00,18.1,3.0,30.52,North,350,3.0,0.0,51,0.00,,,0.00,VWS V14.01,2013-01-24 13:46:00,
2013-01-24 08:51:00,18.1,2.6,30.52,NNW,338,0.0,0.0,50,0.00,,,0.00,VWS V14.01,2013-01-24 13:51:00,
2013-01-24 08:56:00,18.3,3.2,30.52,NW,319,1.0,0.0,51,0.00,,,0.00,VWS V14.01,2013-01-24 13:56:00,
2013-01-24 09:01:00,18.1,3.9,30.52,WNW,283,2.0,0.0,53,0.00,,,0.00,VWS V14.01,2013-01-24 14:01:00,
2013-01-24 09:06:00,18.3,4.1,30.53,NW,319,7.0,0.0,53,0.00,,,0.00,VWS V14.01,2013-01-24 14:06:00,
2013-01-24 09:11:00,18.3,3.2,30.53,NNW,331,2.0,0.0,51,0.00,,,0.00,VWS V14.01,2013-01-24 14:11:00,
2013-01-24 09:16:00,18.3,2.3,30.53,NNW,338,5.0,0.0,49,0.00,,,0.00,VWS V14.01,2013-01-24 14:16:00,
2013-01-24 09:21:00,18.4,1.5,30.53,WNW,292,4.0,0.0,47,0.00,,,0.00,VWS V14.01,2013-01-24 14:21:00,
2013-01-24 09:26:00,18.8,0.5,30.53,NNW,338,5.0,0.0,44,0.00,,,0.00,VWS V14.01,2013-01-24 14:26:00,
2013-01-24 09:31:00,18.8,0.5,30.53,NNW,340,10.0,0.0,44,0.00,,,0.00,VWS V14.01,2013-01-24 14:31:00,
2013-01-24 09:36:00,18.9,0.6,30.54,NW,314,2.0,0.0,44,0.00,,,0.00,VWS V14.01,2013-01-24 14:36:00,
2013-01-24 09:41:00,18.9,1.1,30.54,NNW,329,0.0,0.0,45,0.00,,,0.00,VWS V14.01,2013-01-24 14:41:00,
2013-01-24 09:46:00,19.2,0.4,30.54,NW,326,4.0,0.0,43,0.00,,,0.00,VWS V14.01,2013-01-24 14:46:00,
2013-01-24 09:51:00,19.5,0.2,30.55,NW,312,3.0,0.0,42,0.00,,,0.00,VWS V14.01,2013-01-24 14:51:00,
2013-01-24 09:56:00,19.5,-0.9,30.55,NNW,342,11.0,0.0,40,0.00,,,0.00,VWS V14.01,2013-01-24 14:56:00,
2013-01-24 10:01:00,19.2,-0.6,30.55,NNE,28,3.0,0.0,41,0.00,,,0.00,VWS V14.01,2013-01-24 15:01:00,
2013-01-24 10:06:00,19.4,-2.0,30.56,North,360,2.0,0.0,38,0.00,,,0.00,VWS V14.01,2013-01-24 15:06:00,
2013-01-24 10:11:00,19.4,-1.0,30.56,NNW,335,3.0,0.0,40,0.00,,,0.00,VWS V14.01,2013-01-24 15:11:00,
2013-01-24 10:16:00,19.4,-1.5,30.56,NNW,348,7.0,0.0,39,0.00,,,0.00,VWS V14.01,2013-01-24 15:16:00,
2013-01-24 10:21:00,19.4,-5.0,30.57,NNW,348,6.0,0.0,33,0.00,,,0.00,VWS V14.01,2013-01-24 15:21:00,
2013-01-24 10:26:00,19.7,-2.9,30.57,NNW,339,7.0,0.0,36,0.00,,,0.00,VWS V14.01,2013-01-24 15:26:00,
2013-01-24 10:31:00,19.7,-3.5,30.57,NNW,331,6.0,0.0,35,0.00,,,0.00,VWS V14.01,2013-01-24 15:31:00,
2013-01-24 10:36:00,19.7,-2.9,30.58,East,92,0.0,0.0,36,0.00,,,0.00,VWS V14.01,2013-01-24 15:36:00,
2013-01-24 10:41:00,20.5,-2.2,30.58,NNW,338,6.0,0.0,36,0.00,,,0.00,VWS V14.01,2013-01-24 15:41:00,
2013-01-24 10:46:00,20.6,-2.7,30.58,NE,53,6.0,0.0,35,0.00,,,0.00,VWS V14.01,2013-01-24 15:46:00,
2013-01-24 10:51:00,20.5,-4.0,30.59,NNE,30,5.0,0.0,33,0.00,,,0.00,VWS V14.01,2013-01-24 15:51:00,
2013-01-24 10:56:00,20.6,-3.9,30.59,NNE,33,4.0,0.0,33,0.00,,,0.00,VWS V14.01,2013-01-24 15:56:00,
2013-01-24 11:01:00,20.8,-3.8,30.59,NW,317,4.0,0.0,33,0.00,,,0.00,VWS V14.01,2013-01-24 16:01:00,
2013-01-24 11:06:00,20.8,-5.1,30.59,NNE,29,2.0,0.0,31,0.00,,,0.00,VWS V14.01,2013-01-24 16:06:00,
2013-01-24 11:12:00,21.4,-5.2,30.59,NNE,16,4.0,0.0,30,0.00,,,0.00,VWS V14.01,2013-01-24 16:12:00,
2013-01-24 11:17:00,21.8,-4.2,30.59,North,360,2.0,0.0,31,0.00,,,0.00,VWS V14.01,2013-01-24 16:17:00,
2013-01-24 11:22:00,21.6,-5.7,30.61,NW,326,6.0,0.0,29,0.00,,,0.00,VWS V14.01,2013-01-24 16:22:00,
2013-01-24 11:27:00,21.4,-6.6,30.61,NNW,348,8.0,0.0,28,0.00,,,0.00,VWS V14.01,2013-01-24 16:27:00,
2013-01-24 11:32:00,21.9,-4.8,30.61,NNW,331,5.0,0.0,30,0.00,,,0.00,VWS V14.01,2013-01-24 16:32:00,
2013-01-24 11:37:00,21.9,-5.5,30.61,NNW,333,1.0,0.0,29,0.00,,,0.00,VWS V14.01,2013-01-24 16:37:00,
2013-01-24 11:42:00,21.8,-4.9,30.61,NNE,13,3.0,0.0,30,0.00,,,0.00,VWS V14.01,2013-01-24 16:42:00,
2013-01-24 11:47:00,21.6,-4.3,30.61,NE,40,8.0,0.0,31,0.00,,,0.00,VWS V14.01,2013-01-24 16:47:00,
2013-01-24 11:52:00,21.4,-4.5,30.60,North,360,3.0,0.0,31,0.00,,,0.00,VWS V14.01,2013-01-24 16:52:00,
2013-01-24 11:57:00,21.4,-3.9,30.60,East,88,0.0,0.0,32,0.00,,,0.00,VWS V14.01,2013-01-24 16:57:00,
2013-01-24 12:02:00,22.4,-1.7,30.60,WNW,289,1.0,0.0,34,0.00,,,0.00,VWS V14.01,2013-01-24 17:02:00,
2013-01-24 12:07:00,21.8,-3.5,30.61,NNW,344,5.0,0.0,32,0.00,,,0.00,VWS V14.01,2013-01-24 17:07:00,
2013-01-24 12:12:00,22.1,-2.6,30.61,NE,53,4.0,0.0,33,0.00,,,0.00,VWS V14.01,2013-01-24 17:12:00,
2013-01-24 12:17:00,22.5,-3.6,30.61,NE,44,7.0,0.0,31,0.00,,,0.00,VWS V14.01,2013-01-24 17:17:00,
2013-01-24 12:22:00,22.4,-3.0,30.60,NE,45,4.0,0.0,32,0.00,,,0.00,VWS V14.01,2013-01-24 17:22:00,
2013-01-24 12:27:00,22.9,-2.5,30.60,NNE,25,4.0,0.0,32,0.00,,,0.00,VWS V14.01,2013-01-24 17:27:00,
2013-01-24 12:32:00,22.7,-4.1,30.60,ENE,65,3.0,0.0,30,0.00,,,0.00,VWS V14.01,2013-01-24 17:32:00,
2013-01-24 12:37:00,23.0,-3.1,30.60,ENE,57,0.0,0.0,31,0.00,,,0.00,VWS V14.01,2013-01-24 17:37:00,
2013-01-24 12:42:00,24.1,-2.2,30.60,NW,311,3.0,0.0,31,0.00,,,0.00,VWS V14.01,2013-01-24 17:42:00,
2013-01-24 12:47:00,24.1,-3.5,30.60,NNE,30,1.0,0.0,29,0.00,,,0.00,VWS V14.01,2013-01-24 17:47:00,
2013-01-24 12:52:00,23.3,-2.8,30.58,NNE,26,0.0,0.0,31,0.00,,,0.00,VWS V14.01,2013-01-24 17:52:00,
2013-01-24 12:57:00,22.9,-4.6,30.58,East,88,6.0,0.0,29,0.00,,,0.00,VWS V14.01,2013-01-24 17:57:00,
2013-01-24 13:02:00,23.3,-5.0,30.58,North,360,5.0,0.0,28,0.00,,,0.00,VWS V14.01,2013-01-24 18:02:00,
2013-01-24 13:07:00,23.2,-5.1,30.58,NNW,338,4.0,0.0,28,0.00,,,0.00,VWS V14.01,2013-01-24 18:07:00,
2013-01-24 13:12:00,23.3,-5.0,30.58,NNW,327,3.0,0.0,28,0.00,,,0.00,VWS V14.01,2013-01-24 18:12:00,
2013-01-24 13:17:00,23.8,-5.3,30.58,ENE,61,4.0,0.0,27,0.00,,,0.00,VWS V14.01,2013-01-24 18:17:00,
2013-01-24 13:22:00,23.9,-3.0,30.57,ENE,76,3.0,0.0,30,0.00,,,0.00,VWS V14.01,2013-01-24 18:22:00,
2013-01-24 13:27:00,24.1,-4.3,30.57,East,82,8.0,0.0,28,0.00,,,0.00,VWS V14.01,2013-01-24 18:27:00,
2013-01-24 13:32:00,24.1,-5.0,30.57,ENE,65,0.0,0.0,27,0.00,,,0.00,VWS V14.01,2013-01-24 18:32:00,
2013-01-24 13:37:00,24.1,-4.3,30.57,ENE,71,1.0,0.0,28,0.00,,,0.00,VWS V14.01,2013-01-24 18:37:00,
2013-01-24 13:42:00,23.8,-4.5,30.57,NNE,15,0.0,0.0,28,0.00,,,0.00,VWS V14.01,2013-01-24 18:42:00,
2013-01-24 13:47:00,24.5,-4.7,30.57,ENE,71,5.0,0.0,27,0.00,,,0.00,VWS V14.01,2013-01-24 18:47:00,
2013-01-24 13:52:00,24.1,-4.3,30.56,North,355,2.0,0.0,28,0.00,,,0.00,VWS V14.01,2013-01-24 18:52:00,
2013-01-24 13:57:00,24.4,-4.0,30.56,North,11,6.0,0.0,28,0.00,,,0.00,VWS V14.01,2013-01-24 18:57:00,
2013-01-24 14:02:00,24.4,-4.0,30.56,North,355,1.0,0.0,28,0.00,,,0.00,VWS V14.01,2013-01-24 19:02:00,
2013-01-24 14:07:00,24.2,-4.2,30.56,ENE,67,3.0,0.0,28,0.00,,,0.00,VWS V14.01,2013-01-24 19:07:00,
2013-01-24 14:12:00,23.8,-4.5,30.56,East,87,1.0,0.0,28,0.00,,,0.00,VWS V14.01,2013-01-24 19:12:00,
2013-01-24 14:17:00,23.6,-4.0,30.56,ENE,77,5.0,0.0,29,0.00,,,0.00,VWS V14.01,2013-01-24 19:17:00,
2013-01-24 14:22:00,23.6,-3.3,30.56,NE,47,0.0,0.0,30,0.00,,,0.00,VWS V14.01,2013-01-24 19:22:00,
2013-01-24 14:27:00,24.1,-4.3,30.56,NNE,15,6.0,0.0,28,0.00,,,0.00,VWS V14.01,2013-01-24 19:27:00,
2013-01-24 14:32:00,24.7,-3.8,30.56,NNE,29,3.0,0.0,28,0.00,,,0.00,VWS V14.01,2013-01-24 19:32:00,
2013-01-24 14:37:00,24.4,-4.8,30.56,East,80,0.0,0.0,27,0.00,,,0.00,VWS V14.01,2013-01-24 19:37:00,
2013-01-24 14:42:00,24.2,-4.2,30.56,NNE,17,0.0,0.0,28,0.00,,,0.00,VWS V14.01,2013-01-24 19:42:00,
2013-01-24 14:47:00,24.1,-4.3,30.56,NNE,26,4.0,0.0,28,0.00,,,0.00,VWS V14.01,2013-01-24 19:47:00,
2013-01-24 14:52:00,24.5,-3.9,30.56,East,89,2.0,0.0,28,0.00,,,0.00,VWS V14.01,2013-01-24 19:52:00,
2013-01-24 14:57:00,24.4,-4.0,30.56,NE,55,1.0,0.0,28,0.00,,,0.00,VWS V14.01,2013-01-24 19:57:00,
2013-01-24 15:02:00,24.2,-4.2,30.56,NNE,28,3.0,0.0,28,0.00,,,0.00,VWS V14.01,2013-01-24 20:02:00,
2013-01-24 15:07:00,24.5,-3.9,30.55,ENE,76,2.0,0.0,28,0.00,,,0.00,VWS V14.01,2013-01-24 20:07:00,
2013-01-24 15:12:00,24.5,-4.7,30.55,ENE,65,1.0,0.0,27,0.00,,,0.00,VWS V14.01,2013-01-24 20:12:00,
2013-01-24 15:17:00,24.2,-4.2,30.55,ENE,74,3.0,0.0,28,0.00,,,0.00,VWS V14.01,2013-01-24 20:17:00,
2013-01-24 15:22:00,24.5,-3.9,30.56,North,9,7.0,0.0,28,0.00,,,0.00,VWS V14.01,2013-01-24 20:22:00,
2013-01-24 15:27:00,24.4,-4.8,30.56,NE,45,0.0,0.0,27,0.00,,,0.00,VWS V14.01,2013-01-24 20:27:00,
2013-01-24 15:32:00,24.2,-4.2,30.56,NE,51,5.0,0.0,28,0.00,,,0.00,VWS V14.01,2013-01-24 20:32:00,
2013-01-24 15:37:00,24.2,-3.5,30.56,ENE,69,1.0,0.0,29,0.00,,,0.00,VWS V14.01,2013-01-24 20:37:00,
2013-01-24 15:43:00,24.1,-4.3,30.56,ENE,58,2.0,0.0,28,0.00,,,0.00,VWS V14.01,2013-01-24 20:43:00,
2013-01-24 15:48:00,24.1,-4.3,30.56,ENE,69,0.0,0.0,28,0.00,,,0.00,VWS V14.01,2013-01-24 20:48:00,
2013-01-24 15:53:00,23.9,-3.7,30.56,ENE,77,2.0,0.0,29,0.00,,,0.00,VWS V14.01,2013-01-24 20:53:00,
2013-01-24 15:58:00,23.8,-3.8,30.56,ENE,67,7.0,0.0,29,0.00,,,0.00,VWS V14.01,2013-01-24 20:58:00,
2013-01-24 16:03:00,23.8,-3.8,30.56,ENE,57,1.0,0.0,29,0.00,,,0.00,VWS V14.01,2013-01-24 21:03:00,
2013-01-24 16:08:00,23.9,-4.4,30.55,NE,53,3.0,0.0,28,0.00,,,0.00,VWS V14.01,2013-01-24 21:08:00,
2013-01-24 16:13:00,24.1,-3.5,30.55,NE,49,1.0,0.0,29,0.00,,,0.00,VWS V14.01,2013-01-24 21:13:00,
2013-01-24 16:18:00,23.9,-3.0,30.55,ENE,61,0.0,0.0,30,0.00,,,0.00,VWS V14.01,2013-01-24 21:18:00,
2013-01-24 16:23:00,24.1,-2.8,30.56,ENE,70,2.0,0.0,30,0.00,,,0.00,VWS V14.01,2013-01-24 21:23:00,
2013-01-24 16:28:00,23.9,-3.0,30.56,ENE,78,2.0,0.0,30,0.00,,,0.00,VWS V14.01,2013-01-24 21:28:00,
2013-01-24 16:33:00,23.8,-3.1,30.56,ENE,67,3.0,0.0,30,0.00,,,0.00,VWS V14.01,2013-01-24 21:33:00,
2013-01-24 16:38:00,23.8,-2.4,30.55,East,87,7.0,0.0,31,0.00,,,0.00,VWS V14.01,2013-01-24 21:38:00,
2013-01-24 16:43:00,23.6,-4.0,30.55,East,83,1.0,0.0,29,0.00,,,0.00,VWS V14.01,2013-01-24 21:43:00,
2013-01-24 16:48:00,23.8,-2.4,30.55,NE,53,3.0,0.0,31,0.00,,,0.00,VWS V14.01,2013-01-24 21:48:00,
2013-01-24 16:53:00,23.9,-4.4,30.55,NE,51,2.0,0.0,28,0.00,,,0.00,VWS V14.01,2013-01-24 21:53:00,
2013-01-24 16:58:00,23.8,-3.1,30.55,NE,53,4.0,0.0,30,0.00,,,0.00,VWS V14.01,2013-01-24 21:58:00,
2013-01-24 17:03:00,23.5,-3.4,30.55,NE,55,1.0,0.0,30,0.00,,,0.00,VWS V14.01,2013-01-24 22:03:00,
2013-01-24 17:08:00,23.5,-2.7,30.54,NE,48,3.0,0.0,31,0.00,,,0.00,VWS V14.01,2013-01-24 22:08:00,
2013-01-24 17:13:00,23.3,-2.8,30.54,ENE,71,2.0,0.0,31,0.00,,,0.00,VWS V14.01,2013-01-24 22:13:00,
2013-01-24 17:18:00,23.2,-2.9,30.54,ENE,69,4.0,0.0,31,0.00,,,0.00,VWS V14.01,2013-01-24 22:18:00,
2013-01-24 17:23:00,23.0,-2.5,30.56,ENE,63,2.0,0.0,32,0.00,,,0.00,VWS V14.01,2013-01-24 22:23:00,
2013-01-24 17:28:00,23.0,-3.1,30.56,East,80,1.0,0.0,31,0.00,,,0.00,VWS V14.01,2013-01-24 22:28:00,
2013-01-24 17:33:00,23.0,-2.5,30.56,NE,55,0.0,0.0,32,0.00,,,0.00,VWS V14.01,2013-01-24 22:33:00,
2013-01-24 17:38:00,23.0,-2.5,30.55,ENE,74,1.0,0.0,32,0.00,,,0.00,VWS V14.01,2013-01-24 22:38:00,
2013-01-24 17:43:00,23.0,-2.5,30.55,ENE,76,3.0,0.0,32,0.00,,,0.00,VWS V14.01,2013-01-24 22:43:00,
2013-01-24 17:48:00,23.0,-2.5,30.55,ENE,58,2.0,0.0,32,0.00,,,0.00,VWS V14.01,2013-01-24 22:48:00,
2013-01-24 17:53:00,23.0,-2.5,30.56,East,80,2.0,0.0,32,0.00,,,0.00,VWS V14.01,2013-01-24 22:53:00,
2013-01-24 17:58:00,22.9,-3.2,30.56,ENE,59,2.0,0.0,31,0.00,,,0.00,VWS V14.01,2013-01-24 22:58:00,
2013-01-24 18:03:00,22.7,-2.7,30.56,NE,44,4.0,0.0,32,0.00,,,0.00,VWS V14.01,2013-01-24 23:03:00,
2013-01-24 18:08:00,22.5,-2.9,30.54,ENE,71,2.0,0.0,32,0.00,,,0.00,VWS V14.01,2013-01-24 23:08:00,
2013-01-24 18:13:00,22.5,-3.6,30.54,ENE,62,1.0,0.0,31,0.00,,,0.00,VWS V14.01,2013-01-24 23:13:00,
2013-01-24 18:18:00,22.4,-2.3,30.54,ENE,64,3.0,0.0,33,0.00,,,0.00,VWS V14.01,2013-01-24 23:18:00,
2013-01-24 18:23:00,22.4,-3.0,30.56,ENE,78,4.0,0.0,32,0.00,,,0.00,VWS V14.01,2013-01-24 23:23:00,
2013-01-24 18:28:00,22.2,-3.2,30.56,ENE,66,1.0,0.0,32,0.00,,,0.00,VWS V14.01,2013-01-24 23:28:00,
2013-01-24 18:33:00,22.2,-3.2,30.56,ENE,57,0.0,0.0,32,0.00,,,0.00,VWS V14.01,2013-01-24 23:33:00,
2013-01-24 18:38:00,22.1,-3.2,30.56,NE,45,1.0,0.0,32,0.00,,,0.00,VWS V14.01,2013-01-24 23:38:00,
2013-01-24 18:43:00,22.1,-2.6,30.56,NE,46,0.0,0.0,33,0.00,,,0.00,VWS V14.01,2013-01-24 23:43:00,
2013-01-24 18:48:00,21.9,-2.8,30.56,ENE,72,4.0,0.0,33,0.00,,,0.00,VWS V14.01,2013-01-24 23:48:00,
2013-01-24 18:53:00,21.9,-2.8,30.55,ENE,61,0.0,0.0,33,0.00,,,0.00,VWS V14.01,2013-01-24 23:53:00,
2013-01-24 18:58:00,21.8,-2.2,30.55,ENE,65,0.0,0.0,34,0.00,,,0.00,VWS V14.01,2013-01-24 23:58:00,
2013-01-24 19:03:00,21.8,-2.9,30.55,ENE,69,4.0,0.0,33,0.00,,,0.00,VWS V14.01,2013-01-25 00:03:00,
2013-01-24 19:08:00,21.8,-2.2,30.56,ENE,70,0.0,0.0,34,0.00,,,0.00,VWS V14.01,2013-01-25 00:08:00,
2013-01-24 19:13:00,21.8,-1.6,30.56,ENE,64,1.0,0.0,35,0.00,,,0.00,VWS V14.01,2013-01-25 00:13:00,
2013-01-24 19:18:00,21.6,-1.8,30.56,NE,56,2.0,0.0,35,0.00,,,0.00,VWS V14.01,2013-01-25 00:18:00,
2013-01-24 19:23:00,21.4,-2.6,30.55,ENE,65,4.0,0.0,34,0.00,,,0.00,VWS V14.01,2013-01-25 00:23:00,
2013-01-24 19:28:00,21.4,-2.0,30.55,ENE,63,1.0,0.0,35,0.00,,,0.00,VWS V14.01,2013-01-25 00:28:00,
2013-01-24 19:33:00,21.4,-2.0,30.55,ENE,65,3.0,0.0,35,0.00,,,0.00,VWS V14.01,2013-01-25 00:33:00,
2013-01-24 19:38:00,21.3,-2.1,30.55,ENE,64,3.0,0.0,35,0.00,,,0.00,VWS V14.01,2013-01-25 00:38:00,
2013-01-24 19:43:00,21.3,-2.1,30.55,ENE,75,3.0,0.0,35,0.00,,,0.00,VWS V14.01,2013-01-25 00:43:00,
2013-01-24 19:48:00,21.1,-2.3,30.55,ENE,64,0.0,0.0,35,0.00,,,0.00,VWS V14.01,2013-01-25 00:48:00,
2013-01-24 19:53:00,21.1,-1.7,30.54,ENE,59,4.0,0.0,36,0.00,,,0.00,VWS V14.01,2013-01-25 00:53:00,
2013-01-24 19:58:00,21.0,-1.8,30.54,ENE,60,2.0,0.0,36,0.00,,,0.00,VWS V14.01,2013-01-25 00:58:00,
2013-01-24 20:03:00,21.0,-1.8,30.54,NE,50,2.0,0.0,36,0.00,,,0.00,VWS V14.01,2013-01-25 01:03:00,
2013-01-24 20:08:00,21.0,-1.8,30.54,ENE,63,2.0,0.0,36,0.00,,,0.00,VWS V14.01,2013-01-25 01:08:00,
2013-01-24 20:13:00,21.0,-1.8,30.54,ENE,62,1.0,0.0,36,0.00,,,0.00,VWS V14.01,2013-01-25 01:13:00,
2013-01-24 20:19:00,20.8,-1.9,30.54,NE,52,3.0,0.0,36,0.00,,,0.00,VWS V14.01,2013-01-25 01:19:00,
2013-01-24 20:24:00,20.8,-1.4,30.53,NE,46,3.0,0.0,37,0.00,,,0.00,VWS V14.01,2013-01-25 01:24:00,
2013-01-24 20:29:00,20.8,-1.9,30.53,ENE,76,9.0,0.0,36,0.00,,,0.00,VWS V14.01,2013-01-25 01:29:00,
2013-01-24 20:34:00,20.8,-1.9,30.53,East,85,6.0,0.0,36,0.00,,,0.00,VWS V14.01,2013-01-25 01:34:00,
2013-01-24 20:39:00,20.8,-1.4,30.53,ENE,59,4.0,0.0,37,0.00,,,0.00,VWS V14.01,2013-01-25 01:39:00,
2013-01-24 20:44:00,20.8,-1.4,30.53,ENE,66,5.0,0.0,37,0.00,,,0.00,VWS V14.01,2013-01-25 01:44:00,
2013-01-24 20:49:00,20.8,-1.4,30.53,ENE,59,1.0,0.0,37,0.00,,,0.00,VWS V14.01,2013-01-25 01:49:00,
2013-01-24 20:54:00,20.6,-1.0,30.53,ENE,67,3.0,0.0,38,0.00,,,0.00,VWS V14.01,2013-01-25 01:54:00,
2013-01-24 20:59:00,20.6,-1.5,30.53,ENE,65,2.0,0.0,37,0.00,,,0.00,VWS V14.01,2013-01-25 01:59:00,
2013-01-24 21:04:00,20.6,-1.0,30.53,ENE,67,3.0,0.0,38,0.00,,,0.00,VWS V14.01,2013-01-25 02:04:00,
2013-01-24 21:09:00,20.6,-1.0,30.53,ENE,69,0.0,0.0,38,0.00,,,0.00,VWS V14.01,2013-01-25 02:09:00,
2013-01-24 21:14:00,20.6,-1.0,30.53,ENE,66,1.0,0.0,38,0.00,,,0.00,VWS V14.01,2013-01-25 02:14:00,
2013-01-24 21:19:00,20.6,-1.0,30.52,ENE,77,4.0,0.0,38,0.00,,,0.00,VWS V14.01,2013-01-25 02:19:00,
2013-01-24 21:24:00,20.6,-1.0,30.52,East,84,3.0,0.0,38,0.00,,,0.00,VWS V14.01,2013-01-25 02:24:00,
2013-01-24 21:29:00,20.5,-1.1,30.52,ENE,69,2.0,0.0,38,0.00,,,0.00,VWS V14.01,2013-01-25 02:29:00,
2013-01-24 21:34:00,20.5,-1.1,30.51,NE,55,3.0,0.0,38,0.00,,,0.00,VWS V14.01,2013-01-25 02:34:00,
2013-01-24 21:39:00,20.5,-0.5,30.51,ENE,78,2.0,0.0,39,0.00,,,0.00,VWS V14.01,2013-01-25 02:39:00,
2013-01-24 21:44:00,20.6,-0.4,30.51,ENE,67,0.0,0.0,39,0.00,,,0.00,VWS V14.01,2013-01-25 02:44:00,
2013-01-24 21:49:00,20.6,-0.4,30.52,East,88,0.0,0.0,39,0.00,,,0.00,VWS V14.01,2013-01-25 02:49:00,
2013-01-24 21:54:00,20.6,0.1,30.52,ENE,60,2.0,0.0,40,0.00,,,0.00,VWS V14.01,2013-01-25 02:54:00,
2013-01-24 21:59:00,20.6,0.1,30.52,ENE,59,0.0,0.0,40,0.00,,,0.00,VWS V14.01,2013-01-25 02:59:00,
2013-01-24 22:04:00,20.8,-0.2,30.51,ENE,74,0.0,0.0,39,0.00,,,0.00,VWS V14.01,2013-01-25 03:04:00,
2013-01-24 22:09:00,20.8,0.3,30.51,ENE,77,5.0,0.0,40,0.00,,,0.00,VWS V14.01,2013-01-25 03:09:00,
2013-01-24 22:14:00,20.8,0.3,30.51,ENE,60,5.0,0.0,40,0.00,,,0.00,VWS V14.01,2013-01-25 03:14:00,
2013-01-24 22:19:00,21.0,-0.1,30.50,East,96,7.0,0.0,39,0.00,,,0.00,VWS V14.01,2013-01-25 03:19:00,
2013-01-24 22:24:00,21.0,-0.6,30.50,NE,56,3.0,0.0,38,0.00,,,0.00,VWS V14.01,2013-01-25 03:24:00,
2013-01-24 22:29:00,21.0,-0.6,30.50,East,94,5.0,0.0,38,0.00,,,0.00,VWS V14.01,2013-01-25 03:29:00,
2013-01-24 22:34:00,21.0,-0.1,30.50,NE,45,4.0,0.0,39,0.00,,,0.00,VWS V14.01,2013-01-25 03:34:00,
2013-01-24 22:39:00,21.0,-0.1,30.50,East,87,1.0,0.0,39,0.00,,,0.00,VWS V14.01,2013-01-25 03:39:00,
2013-01-24 22:44:00,21.0,-0.1,30.50,ENE,78,3.0,0.0,39,0.00,,,0.00,VWS V14.01,2013-01-25 03:44:00,
2013-01-24 22:49:00,21.0,-0.1,30.49,East,93,7.0,0.0,39,0.00,,,0.00,VWS V14.01,2013-01-25 03:49:00,
2013-01-24 22:54:00,21.0,0.5,30.49,East,96,5.0,0.0,40,0.00,,,0.00,VWS V14.01,2013-01-25 03:54:00,
2013-01-24 22:59:00,20.8,0.3,30.49,East,86,10.0,0.0,40,0.00,,,0.00,VWS V14.01,2013-01-25 03:59:00,
2013-01-24 23:00:00,20.8,1.8,30.47,ENE,61,8.0,0.0,43,0.00,,,0.00,VWS V14.01,2013-01-25 04:00:00,
2013-01-24 23:04:00,20.8,0.8,30.48,East,82,2.0,0.0,41,0.00,,,0.00,VWS V14.01,2013-01-25 04:04:00,
2013-01-24 23:09:00,20.8,0.8,30.48,East,84,2.0,0.0,41,0.00,,,0.00,VWS V14.01,2013-01-25 04:09:00,
2013-01-24 23:10:00,21.0,2.0,30.47,East,94,8.0,0.0,43,0.00,,,0.00,VWS V14.01,2013-01-25 04:10:00,
2013-01-24 23:14:00,20.8,1.3,30.48,ENE,76,2.0,0.0,42,0.00,,,0.00,VWS V14.01,2013-01-25 04:14:00,
2013-01-24 23:19:00,20.8,1.3,30.48,East,80,2.0,0.0,42,0.00,,,0.00,VWS V14.01,2013-01-25 04:19:00,
2013-01-24 23:20:00,21.0,2.5,30.45,East,90,10.0,0.0,44,0.00,,,0.00,VWS V14.01,2013-01-25 04:20:00,
2013-01-24 23:24:00,20.8,1.3,30.48,ENE,76,3.0,0.0,42,0.00,,,0.00,VWS V14.01,2013-01-25 04:24:00,
2013-01-24 23:25:00,21.0,2.5,30.45,East,95,5.0,0.0,44,0.00,,,0.00,VWS V14.01,2013-01-25 04:25:00,
2013-01-24 23:29:00,20.8,1.8,30.48,East,98,3.0,0.0,43,0.00,,,0.00,VWS V14.01,2013-01-25 04:29:00,
2013-01-24 23:30:00,21.0,2.5,30.45,East,80,3.0,0.0,44,0.00,,,0.00,VWS V14.01,2013-01-25 04:30:00,
2013-01-24 23:34:00,20.8,1.8,30.48,East,91,5.0,0.0,43,0.00,,,0.00,VWS V14.01,2013-01-25 04:34:00,
2013-01-24 23:35:00,21.0,2.5,30.45,East,92,3.0,0.0,44,0.00,,,0.00,VWS V14.01,2013-01-25 04:35:00,
2013-01-24 23:39:00,20.8,1.8,30.48,East,84,7.0,0.0,43,0.00,,,0.00,VWS V14.01,2013-01-25 04:39:00,
2013-01-24 23:40:00,21.0,2.5,30.45,ESE,105,5.0,0.0,44,0.00,,,0.00,VWS V14.01,2013-01-25 04:40:00,
2013-01-24 23:44:00,20.8,1.8,30.48,ENE,72,8.0,0.0,43,0.00,,,0.00,VWS V14.01,2013-01-25 04:44:00,
2013-01-24 23:45:00,21.0,2.5,30.45,ENE,78,2.0,0.0,44,0.00,,,0.00,VWS V14.01,2013-01-25 04:45:00,
2013-01-24 23:49:00,21.0,2.0,30.47,East,89,3.0,0.0,43,0.00,,,0.00,VWS V14.01,2013-01-25 04:49:00,
2013-01-24 23:50:00,21.0,2.5,30.45,East,93,3.0,0.0,44,0.00,,,0.00,VWS V14.01,2013-01-25 04:50:00,
2013-01-24 23:54:00,21.0,2.0,30.47,East,94,2.0,0.0,43,0.00,,,0.00,VWS V14.01,2013-01-25 04:54:00,
2013-01-24 23:55:00,21.0,3.0,30.45,East,96,5.0,0.0,45,0.00,,,0.00,VWS V14.01,2013-01-25 04:55:00,
2013-01-24 23:59:00,20.8,1.8,30.47,ENE,69,5.0,0.0,43,0.00,,,0.00,VWS V14.01,2013-01-25 04:59:00,